{"data":{"norad_id":85015,"intl_designator":"","name":"UNKNOWN","alt_names":[],"object_type":"UNKNOWN","status":"UNKNOWN","operator":null,"country":null,"launch_date":null,"launch_site_code":null,"launch_vehicle":null,"mission":null,"orbit_class":"UNKNOWN","rcs_meters":null,"size_class":null,"mass_kg":null,"dimensions":null,"purposes":[],"wikipedia_slug":null,"has_3d_model":false,"image_url":null,"decayed_at":null,"tle_current":{"epoch":"2026-05-23T13:25:12.580032Z","epoch_age_seconds":209709,"freshness":"STALE","line1":"1 85015U          26143.55917338  .00000311  00000+0  67394-4 0  9993","line2":"2 85015  74.0498  88.4934 0015782 308.7261  51.2495 14.62489882666263","mean_motion":14.62489882,"eccentricity":0.0015782,"inclination_deg":74.0498,"raan_deg":88.4934,"arg_perigee_deg":308.7261,"mean_anomaly_deg":51.2495,"bstar":6.7394e-5,"rev_number":66626,"period_min":98.462219651787,"perigee_km":673.99852131795,"apogee_km":696.29306712963,"semimajor_km":7063.2827942238,"source":"CELESTRAK","updated_at":"2026-05-25T13:38:11.428832Z"}}}